Date,TemperatureHighF,TemperatureAvgF,TemperatureLowF,DewpointHighF,DewpointAvgF,DewpointLowF,HumidityHigh,HumidityAvg,HumidityLow,PressureMaxIn,PressureMinIn,WindSpeedMaxMPH,WindSpeedAvgMPH,GustSpeedMaxMPH,PrecipitationSumIn
2013-3-4,40.8,27.2,20.8,21.8,20.0,17.4,97,77,41,29.94,29.92,5,1,0,0.00
2013-3-5,51.6,34.6,16.0,30.9,19.0,13.7,98,60,23,29.95,29.63,8,2,0,0.01
2013-3-6,43.0,35.9,31.6,33.7,30.4,27.0,99,82,56,30.10,29.63,11,2,0,0.43
2013-3-7,42.4,36.6,32.4,31.1,29.5,27.0,90,76,58,30.25,30.08,7,3,7,0.00
2013-3-8,39.6,32.4,22.8,28.1,26.1,22.6,99,78,62,30.38,30.19,12,4,16,0.00
2013-3-9,64.0,34.0,17.6,33.7,25.0,17.1,99,75,26,30.39,30.17,6,1,7,0.00
2013-3-10,71.1,51.5,30.7,37.1,31.0,25.6,87,52,25,30.17,30.00,10,3,12,0.00
2013-3-11,63.0,56.3,46.8,50.5,35.2,29.6,97,47,30,30.02,29.73,14,4,19,0.15
2013-3-12,51.3,40.9,36.9,51.1,37.0,28.8,100,86,69,29.99,29.76,14,5,20,0.37
2013-3-13,39.2,32.9,26.6,32.7,27.4,17.5,100,82,47,30.10,29.91,26,7,28,0.06
2013-3-14,41.4,30.3,21.7,22.2,19.2,16.2,94,65,40,30.20,30.10,20,7,28,0.02
2013-3-15,50.0,35.5,18.3,38.9,26.0,17.6,100,71,49,30.12,29.80,17,4,22,0.00
2013-3-16,43.9,38.8,35.1,40.9,37.9,34.0,100,96,89,29.93,29.61,10,3,15,0.02
2013-3-17,37.9,33.5,28.8,34.3,24.6,20.6,97,71,53,30.17,29.93,12,5,17,0.00
2013-3-18,42.6,35.3,30.7,37.2,29.7,22.6,96,80,62,30.13,29.69,20,8,28,0.47
2013-3-19,48.2,38.6,29.3,42.3,29.7,16.7,100,73,35,29.96,29.68,29,8,33,0.12
2013-3-20,41.4,32.1,20.5,21.8,17.2,14.3,88,55,39,29.97,29.78,22,7,28,0.00
2013-3-21,29.1,24.1,16.5,21.5,13.4,6.1,95,65,45,29.89,29.82,23,7,26,0.00
2013-3-22,39.0,29.1,20.4,20.3,18.4,16.5,92,65,46,30.00,29.88,19,6,21,0.00
2013-3-23,48.6,30.9,14.7,26.8,20.2,14.0,100,69,35,30.01,29.95,19,3,24,0.00
2013-3-24,43.9,33.1,22.8,30.4,22.7,19.5,91,67,42,29.98,29.50,16,5,22,0.01
2013-3-25,39.7,33.7,30.7,36.0,31.9,26.3,100,93,71,29.71,29.44,14,4,20,0.59
2013-3-26,45.9,35.2,29.7,33.3,31.2,28.8,100,86,56,30.05,29.71,13,4,18,0.04
2013-3-27,43.9,36.1,30.7,32.5,28.9,23.6,100,77,47,30.14,30.04,19,6,26,0.08
2013-3-28,45.0,37.3,33.8,32.1,29.3,27.3,88,73,53,30.24,30.10,11,4,16,0.00
2013-3-29,55.8,40.6,28.9,32.8,28.6,22.1,96,67,29,30.25,30.13,17,3,20,0.00
2013-3-30,56.8,38.7,20.7,33.1,24.5,19.7,100,64,26,30.24,30.02,11,2,17,0.00
2013-3-31,50.4,42.9,33.3,46.9,37.7,26.1,97,82,49,30.02,29.72,11,3,13,0.10
2013-4-1,47.3,40.4,26.8,43.4,30.2,13.7,99,70,29,30.00,29.71,18,6,24,0.02
2013-4-2,43.3,31.1,22.8,22.2,16.3,11.8,78,56,33,30.16,29.99,18,5,28,0.00
2013-4-3,44.2,29.9,16.5,20.6,15.2,9.2,95,59,29,30.38,30.16,21,5,28,0.00
2013-4-4,52.5,28.8,13.3,36.1,16.5,12.1,97,66,26,30.37,29.96,10,2,13,0.00
2013-4-5,57.7,41.4,23.4,31.8,24.6,19.5,94,55,29,30.22,29.92,20,5,26,0.00
2013-4-6,64.4,42.6,19.8,25.3,18.4,9.2,97,47,15,30.27,30.02,11,3,15,0.00
2013-4-7,72.9,59.6,48.4,50.0,37.7,21.7,93,47,30,30.02,29.88,20,8,30,0.00
2013-4-8,76.1,59.9,43.0,52.2,46.5,42.7,100,67,35,30.04,29.90,18,4,25,0.00
2013-4-9,81.5,65.5,49.1,56.0,51.5,46.2,90,63,39,30.10,29.91,13,3,18,0.00
2013-4-10,83.3,70.1,51.3,59.7,55.7,48.6,98,63,41,29.99,29.80,19,6,26,0.22
2013-4-11,78.4,65.1,48.9,59.9,55.7,48.9,100,75,50,30.16,29.60,14,3,22,0.01
2013-4-12,68.2,59.5,45.3,59.8,49.9,34.1,99,72,43,29.85,29.53,22,8,30,0.52
2013-4-13,61.3,46.6,35.2,35.9,33.1,30.0,89,61,36,29.99,29.85,21,6,28,0.00
2013-4-14,64.4,47.8,27.5,39.8,32.8,26.7,100,60,36,30.15,29.99,10,3,12,0.00
2013-4-15,68.0,60.9,56.1,49.4,44.3,35.7,69,55,43,30.12,29.98,17,7,25,0.00
2013-4-16,82.2,66.8,57.4,60.3,54.1,48.4,100,66,44,30.22,30.03,20,6,31,0.80
2013-4-17,70.5,59.1,54.1,58.5,55.5,53.3,100,89,61,30.24,30.11,11,3,14,0.19
2013-4-18,86.4,72.0,59.2,62.0,57.1,53.6,87,62,41,30.11,29.82,20,7,33,0.00
2013-4-19,74.3,60.4,44.1,59.7,49.8,31.9,91,69,53,29.86,29.51,23,8,26,0.18
2013-4-20,51.8,40.8,28.4,33.5,28.3,23.6,91,63,36,30.36,29.86,22,7,32,0.01
2013-4-21,57.2,40.4,23.0,30.7,23.2,17.5,100,57,24,30.56,30.36,16,4,21,0.00
2013-4-22,63.9,51.0,40.8,31.0,25.9,22.0,55,39,22,30.44,30.27,14,5,21,0.00
2013-4-23,72.9,54.7,31.8,42.8,34.9,30.0,96,52,23,30.28,29.98,14,3,14,0.00
2013-4-24,74.5,57.0,38.5,58.2,46.2,34.5,95,69,47,30.16,29.75,21,6,28,0.32
2013-4-25,60.6,46.2,31.3,38.4,32.8,27.1,100,64,30,30.34,30.15,16,5,21,0.00
2013-4-26,63.0,48.0,33.3,42.1,33.6,24.8,100,63,28,30.49,30.34,11,2,14,0.00
2013-4-27,76.1,55.3,29.5,40.2,35.4,29.5,100,56,22,30.38,30.16,16,3,16,0.00
2013-4-28,60.8,56.0,49.3,52.0,46.2,39.7,88,70,46,30.17,29.96,16,6,22,0.17
2013-4-29,69.1,58.8,53.2,57.4,52.1,46.4,100,79,62,30.03,29.94,14,4,22,0.03
2013-4-30,74.5,61.5,51.8,54.8,51.5,48.9,100,72,47,30.20,30.02,14,5,20,0.00
2013-5-1,78.3,64.9,53.4,52.0,45.3,32.9,81,53,26,30.31,30.19,13,5,20,0.00
2013-5-2,79.5,63.8,41.9,42.3,35.9,28.1,88,39,16,30.36,30.21,15,4,21,0.00
2013-5-3,75.2,62.0,45.1,46.2,39.5,32.0,72,45,25,30.26,30.17,24,5,24,0.00
2013-5-4,72.9,59.7,39.4,43.7,38.4,29.7,86,46,32,30.22,30.09,20,5,22,0.00
2013-5-5,75.0,59.4,42.3,42.6,34.1,23.9,90,45,16,30.15,30.02,17,5,26,0.00
2013-5-6,70.9,59.5,47.8,54.1,46.6,35.8,88,63,47,30.09,30.00,17,6,22,0.00
2013-5-7,66.9,60.5,57.0,56.8,54.2,45.6,89,80,61,30.02,29.93,16,5,18,0.05
2013-5-8,75.2,61.8,48.0,57.0,51.6,46.8,100,73,39,29.99,29.88,12,3,15,0.33
2013-5-9,71.6,63.0,51.1,58.0,55.6,51.1,100,79,60,30.00,29.91,10,2,14,0.03
2013-5-10,71.2,71.2,71.2,56.6,56.6,56.6,60,60,60,29.98,29.98,3,3,3,0.00
2013-5-11,71.2,71.2,71.2,56.6,56.6,56.6,60,60,60,29.98,29.98,3,3,3,0.00
2013-5-12,71.2,71.2,71.2,56.6,56.6,56.6,60,60,60,29.98,29.98,3,3,3,0.00
2013-5-13,71.2,71.2,71.2,56.6,56.6,56.6,60,60,60,29.98,29.98,3,3,3,0.00
2013-5-14,71.2,47.0,26.2,56.6,34.7,17.3,100,66,39,30.18,29.91,12,2,15,0.00
2013-5-15,89.1,70.1,49.6,62.2,55.5,44.2,85,62,40,29.91,29.72,20,5,30,0.00
2013-5-16,71.6,69.7,64.9,60.2,57.4,54.8,81,65,57,29.80,29.78,6,2,9,0.00
2013-5-18,84.7,68.4,50.7,62.2,57.3,50.7,100,71,43,30.13,29.80,11,3,15,0.00
2013-5-19,80.4,68.5,56.8,63.7,59.9,56.2,99,75,56,30.12,29.99,11,3,14,0.00
2013-5-20,94.1,72.7,58.6,67.7,63.1,57.8,100,75,41,30.04,29.85,8,2,10,0.00
2013-5-21,87.4,73.9,60.4,70.3,65.2,60.4,100,77,51,29.99,29.86,12,3,17,0.00
2013-5-22,84.0,76.2,66.0,66.1,64.7,59.6,88,68,51,29.89,29.81,22,4,32,0.07
2013-5-23,79.3,65.4,57.7,64.9,61.2,56.6,100,87,53,29.88,29.79,15,4,22,0.58
2013-5-24,57.2,46.0,38.7,56.2,39.8,31.2,100,80,54,30.26,29.84,16,6,26,0.09
2013-5-25,66.7,47.2,32.9,39.1,35.2,31.0,100,68,33,30.30,30.19,18,4,25,0.00
2013-5-26,69.6,50.7,32.2,41.0,37.1,32.2,100,66,30,30.28,30.19,14,3,18,0.00
2013-5-27,66.7,53.5,35.2,50.7,44.1,35.2,100,73,42,30.27,30.11,9,1,12,0.00
2013-5-28,78.4,64.4,54.3,68.6,59.8,49.6,100,86,57,30.11,30.00,13,2,19,0.48
2013-5-29,91.0,73.2,59.5,66.1,61.4,58.1,100,69,40,30.11,30.03,18,4,26,0.00
2013-5-30,88.7,73.2,55.9,69.5,62.9,55.9,100,74,44,30.21,30.09,11,2,14,0.00
2013-5-31,89.4,74.5,57.9,67.3,63.1,57.9,100,72,41,30.15,30.00,11,2,17,0.00
2013-6-1,87.8,75.6,63.9,69.3,65.5,62.1,100,74,48,30.04,29.85,16,3,22,0.17
2013-6-2,80.8,73.0,64.0,67.8,63.7,59.4,96,74,50,29.89,29.82,16,4,21,0.16
2013-6-3,68.4,62.9,49.3,63.6,57.9,48.5,100,85,60,30.05,29.87,11,3,16,0.08
2013-6-4,74.3,57.8,37.8,53.4,46.5,37.8,100,71,40,30.17,30.05,12,2,14,0.00
2013-6-5,84.9,65.8,45.5,67.2,55.1,45.5,100,72,45,30.13,29.94,10,3,15,0.04
2013-6-6,70.0,65.4,61.7,62.7,61.3,59.2,100,87,69,29.96,29.78,9,3,14,0.83
2013-6-7,67.1,63.7,61.2,64.5,62.3,58.6,100,95,88,29.84,29.73,9,3,15,0.03
2013-6-8,73.6,62.6,55.8,61.7,56.4,54.0,99,81,59,30.11,29.84,8,2,12,0.00
2013-6-9,85.1,70.4,52.9,65.8,60.5,52.9,100,74,45,30.16,30.03,10,2,13,0.00
2013-6-10,78.6,69.5,62.6,70.3,65.1,61.3,99,86,74,30.03,29.81,10,3,15,0.68
2013-6-11,82.8,68.0,62.4,68.5,63.7,61.3,97,87,56,29.90,29.81,13,4,18,0.04
2013-6-12,84.2,72.7,60.8,71.3,67.2,60.8,100,84,62,29.89,29.76,11,1,15,0.00
2013-6-13,73.8,68.1,61.2,71.1,63.5,55.6,99,85,75,29.78,29.55,17,5,26,0.49
2013-6-14,79.2,64.2,55.8,59.8,56.6,54.2,97,78,50,30.05,29.78,11,2,16,0.00
2013-6-15,82.6,65.1,48.6,59.6,54.0,48.6,100,72,36,30.14,30.01,12,2,16,0.00
2013-6-16,76.3,67.1,61.2,68.4,62.6,56.8,98,86,71,30.03,29.93,18,3,18,0.13
2013-6-17,84.0,72.7,63.7,68.1,64.8,62.5,97,78,53,29.99,29.90,11,3,13,0.00
2013-6-18,79.2,67.3,61.2,69.4,64.2,61.0,100,91,69,29.93,29.85,9,1,14,0.09
2013-6-19,81.3,67.2,55.2,62.1,55.1,46.8,100,69,34,30.14,29.93,13,4,17,0.00
2013-6-20,83.8,66.6,48.9,61.5,55.6,48.9,100,72,41,30.23,30.14,9,2,12,0.00
2013-6-21,90.7,70.6,51.4,65.5,58.5,51.4,100,71,35,30.26,30.16,10,2,12,0.00
2013-6-22,93.9,74.2,57.6,71.5,65.0,57.6,100,76,43,30.22,30.07,9,2,12,0.00
2013-6-23,92.7,76.5,61.5,70.3,66.4,61.5,100,74,44,30.17,30.06,11,2,17,0.00
2013-6-24,92.8,76.3,62.6,70.8,67.2,62.6,100,76,48,30.15,30.02,13,2,20,0.02
2013-6-25,90.0,75.3,63.9,70.1,66.9,60.8,100,78,51,30.07,29.90,15,4,24,0.34
2013-6-26,81.7,71.8,64.0,72.5,68.0,64.0,100,89,67,30.00,29.83,13,3,17,2.05
2013-6-27,74.8,68.7,64.4,70.4,67.7,64.4,100,97,84,29.83,29.66,12,2,17,0.92
2013-6-28,79.3,67.7,60.3,70.7,65.6,60.1,100,94,72,29.68,29.53,15,2,18,2.17
2013-6-29,81.3,68.7,59.5,67.8,63.6,59.5,100,85,62,29.71,29.57,10,3,14,0.02
2013-6-30,88.3,72.3,58.5,68.8,64.1,58.5,100,78,47,29.90,29.70,14,3,23,0.00
2013-7-1,88.7,71.8,65.1,71.4,66.8,63.0,100,86,51,29.96,29.82,23,2,25,2.30
2013-7-2,85.5,74.2,65.3,73.1,68.4,65.3,100,84,56,30.08,29.95,11,2,15,0.16
2013-7-3,87.6,74.8,64.4,72.7,68.4,64.4,100,82,57,30.19,30.08,10,2,14,0.21
2013-7-4,89.4,75.0,67.8,72.9,69.2,66.7,100,85,54,30.22,30.12,10,2,18,0.47
2013-7-5,90.1,76.0,65.7,72.7,68.8,65.7,100,81,55,30.18,30.11,14,2,17,0.00
2013-7-6,92.1,78.8,66.9,74.4,70.8,66.9,100,79,51,30.27,30.03,10,2,12,0.19
2013-7-7,81.9,73.7,68.9,72.1,68.8,66.9,96,85,65,30.12,30.02,9,2,12,0.16
2013-7-8,88.2,74.2,67.5,70.3,67.8,64.9,99,82,54,30.14,30.05,10,3,15,0.00
2013-7-9,85.3,72.9,67.3,76.5,70.2,67.3,100,92,73,30.12,29.99,11,3,17,1.34
2013-7-10,86.4,72.4,65.1,76.1,69.5,64.8,100,92,68,30.04,29.84,23,3,32,1.61
2013-7-11,78.1,68.9,60.4,68.6,64.8,59.5,100,88,59,30.00,29.89,11,2,15,0.00
2013-7-12,73.9,61.7,58.6,67.3,60.6,58.6,100,97,78,30.11,29.98,7,0,10,0.00
2013-7-13,89.6,73.2,60.8,69.0,65.8,60.8,100,79,52,30.24,30.09,10,2,12,0.00
2013-7-14,94.6,79.7,69.6,75.1,69.5,66.6,96,73,45,30.31,30.22,10,2,13,0.00
2013-7-15,96.3,77.8,64.9,74.4,69.4,64.9,100,78,43,30.35,30.24,8,2,10,0.00
2013-7-16,95.2,76.5,67.8,77.0,71.7,67.8,100,87,53,30.37,30.24,15,2,26,0.38
2013-7-17,95.2,76.4,68.0,77.7,72.0,68.0,100,88,55,30.31,30.17,12,1,16,0.00
2013-7-18,98.1,80.4,68.4,78.5,73.4,68.4,100,82,49,30.20,30.04,10,2,12,0.00
2013-7-19,90.7,77.7,70.5,79.1,73.2,69.2,100,87,65,30.05,29.90,11,3,20,0.41
2013-7-20,78.3,72.9,67.6,73.8,70.0,67.3,100,91,80,29.94,29.86,10,3,15,0.12
2013-7-21,89.4,73.3,66.0,73.3,69.2,66.0,100,88,56,30.58,29.91,8,2,12,0.07
2013-7-22,84.0,71.8,64.4,73.3,69.1,64.4,100,92,68,29.96,29.79,11,1,12,0.58
2013-7-23,90.3,71.5,63.0,71.9,67.4,62.4,100,89,52,29.80,29.71,24,3,35,1.02
2013-7-24,75.6,65.7,55.0,64.8,59.1,54.3,100,81,54,29.99,29.76,12,3,15,0.01
2013-7-25,80.8,63.7,49.8,58.0,54.4,49.8,100,76,41,30.08,29.98,15,3,16,0.01
2013-7-26,86.5,66.1,50.2,64.3,57.2,50.2,100,77,42,30.11,30.00,9,2,12,0.00
2013-7-27,75.7,66.1,57.7,70.7,64.2,57.7,100,94,77,30.01,29.86,11,1,20,0.48
2013-7-28,84.2,68.4,55.9,66.6,61.2,54.3,100,80,46,30.04,29.86,12,3,18,0.25
2013-7-29,75.6,63.2,49.5,61.1,55.8,49.5,100,79,50,30.20,30.04,13,2,17,0.00
2013-7-30,85.6,66.3,53.1,65.0,58.7,53.1,100,79,42,30.35,30.15,9,2,12,0.00
2013-7-31,81.0,66.3,55.4,67.9,62.0,55.4,100,88,54,30.16,29.97,8,1,12,0.16
2013-8-1,88.7,70.3,61.5,69.0,65.2,60.9,100,86,48,29.97,29.86,11,2,18,0.13
2013-8-2,82.8,68.6,57.9,64.7,61.1,57.9,100,79,52,30.00,29.91,12,2,19,0.00
2013-8-3,74.8,67.2,61.0,67.2,64.6,61.0,100,92,77,30.00,29.94,9,2,14,0.19
2013-8-4,81.1,65.4,55.8,61.5,58.6,54.1,100,81,45,30.08,29.99,15,3,22,0.00
2013-8-5,79.3,62.8,49.8,60.8,55.5,49.8,100,80,44,30.14,30.02,8,2,10,0.00
2013-8-6,86.2,68.0,53.1,64.1,58.9,53.1,100,76,38,30.04,29.97,8,2,12,0.00
2013-8-7,85.5,70.7,60.8,74.5,66.6,60.8,100,88,63,30.02,29.91,15,2,22,0.52
2013-8-8,85.1,73.2,63.9,74.7,69.3,63.9,100,89,68,29.99,29.92,8,2,12,0.01
2013-8-9,79.7,72.5,64.9,74.9,71.3,64.9,100,96,82,30.02,29.91,13,2,16,1.40
2013-8-10,81.9,70.6,61.9,70.2,65.1,61.9,100,85,56,30.10,30.01,10,2,14,0.01
2013-8-11,88.0,71.5,59.5,71.9,66.1,59.5,100,85,54,30.12,30.01,8,2,12,0.91
2013-8-12,84.4,72.6,66.0,70.3,67.5,64.5,100,86,56,30.07,29.90,9,2,12,3.98
2013-8-13,81.7,69.3,58.1,71.0,64.3,51.3,100,85,58,29.97,29.82,15,4,21,0.44
2013-8-14,68.1,57.4,47.1,56.9,51.9,46.8,100,84,62,30.14,29.88,7,2,12,0.00
2013-8-15,76.6,60.1,48.9,58.6,52.3,48.7,100,79,42,30.20,30.09,8,2,12,0.00
2013-8-16,81.3,63.6,47.7,61.3,55.8,47.7,100,79,48,30.17,30.10,9,2,12,0.00
2013-8-17,79.2,65.3,51.3,60.6,56.3,51.3,100,76,44,30.25,30.17,12,2,14,0.00
2013-8-18,77.5,68.8,62.8,67.2,62.5,58.0,95,81,64,30.23,30.13,7,1,10,0.00
2013-8-19,88.2,69.7,61.7,70.0,66.2,61.7,100,90,54,30.15,30.06,7,1,9,0.42
2013-8-20,79.5,60.0,57.7,79.5,59.3,57.7,100,98,71,30.17,30.11,0,0,0,0.00
2013-8-21,87.6,69.8,54.5,73.9,63.9,54.5,100,83,58,30.20,30.07,8,1,10,0.00
2013-8-22,83.3,70.3,63.7,72.1,67.3,63.6,100,91,70,30.12,29.99,15,2,17,0.00
2013-8-23,82.8,68.3,61.2,69.5,65.1,61.2,100,91,53,30.14,29.98,9,1,10,0.29
2013-8-24,82.8,68.1,59.2,66.9,62.0,58.9,100,84,50,30.30,30.13,8,1,10,0.01
2013-8-25,81.7,67.2,53.4,67.7,60.5,53.4,100,82,54,30.37,30.24,11,2,12,0.00
2013-8-26,83.7,69.3,55.6,68.7,63.4,55.6,100,84,58,30.27,30.04,11,2,16,0.00
2013-8-27,80.8,73.2,67.6,73.6,69.7,-19.7,100,89,79,30.05,29.95,10,3,15,0.00
2013-8-28,79.3,71.4,67.8,75.4,71.0,67.8,100,99,87,29.97,29.80,21,2,28,3.71
2013-8-29,70.2,70.0,66.4,70.2,69.9,66.4,100,100,96,30.03,29.89,4,3,4,0.00
2013-8-30,92.1,73.4,60.3,72.8,67.9,60.3,100,85,57,30.02,29.85,10,2,14,0.00
2013-8-31,87.6,74.2,65.5,74.2,69.3,65.5,100,86,59,29.90,29.79,11,2,15,0.00
2013-9-1,84.6,72.7,66.6,73.1,69.3,66.6,100,90,68,29.86,29.78,9,2,12,0.00
2013-9-2,86.5,72.8,64.2,73.2,68.9,64.2,100,89,61,29.85,29.75,13,3,16,0.02
2013-9-3,76.5,66.7,60.8,67.5,60.6,56.0,100,82,53,30.04,29.83,11,2,17,0.00
2013-9-4,83.1,62.8,50.9,62.0,56.6,50.9,100,83,49,30.13,30.03,10,2,12,0.00
2013-9-5,77.7,62.8,50.9,63.3,56.8,50.0,100,83,48,30.20,30.08,13,2,15,0.00
2013-9-6,79.7,57.5,41.4,54.9,48.8,41.4,100,77,37,30.26,30.13,11,2,15,0.00
2013-9-7,81.3,60.8,43.7,60.5,52.9,43.7,100,79,45,30.13,29.96,15,2,16,0.00
2013-9-8,81.5,68.2,59.9,68.8,63.1,58.9,100,85,64,30.05,29.93,11,2,13,0.00
2013-9-9,85.3,69.1,55.2,72.0,64.4,55.2,100,86,62,30.10,30.01,9,1,13,0.00
2013-9-10,90.9,76.2,64.9,77.1,70.9,64.9,100,85,63,30.16,30.05,11,3,15,0.00
2013-9-11,87.6,75.7,68.5,77.1,71.9,68.5,100,89,64,30.16,30.03,10,2,13,0.00
2013-9-12,80.1,71.4,62.2,72.6,68.7,62.1,100,92,75,30.03,29.80,13,2,16,0.26
2013-9-13,68.4,58.6,47.3,62.1,54.6,21.4,100,88,62,30.02,29.81,17,3,29,0.04
2013-9-14,72.5,54.3,45.1,51.9,47.3,41.8,100,80,42,30.17,30.01,11,2,15,0.00
2013-9-15,74.8,56.2,39.7,59.4,50.8,39.7,100,84,58,30.19,30.06,13,2,23,0.00
2013-9-16,77.2,61.1,53.2,59.7,56.3,50.4,100,86,54,30.29,30.05,11,2,15,0.37
2013-9-17,75.7,56.8,43.9,54.8,48.6,43.9,100,78,40,30.54,30.25,10,2,15,0.00
2013-9-18,81.1,57.6,41.2,59.6,49.9,41.2,100,79,42,30.26,30.10,7,1,10,0.00
2013-9-19,82.2,64.1,55.0,65.6,60.2,55.0,100,89,53,30.15,30.03,8,1,10,0.02
2013-9-20,84.4,67.8,53.0,70.9,63.7,48.4,100,88,63,30.05,29.85,9,2,12,0.00
2013-9-21,73.9,64.0,56.8,68.6,62.7,56.6,100,96,81,29.85,29.67,20,2,28,1.55
2013-9-22,65.5,57.3,52.1,57.7,52.6,47.3,100,86,55,30.01,29.78,13,2,17,0.01
2013-9-23,62.9,52.2,39.9,50.9,46.5,39.7,100,82,55,30.13,30.00,10,2,15,0.00
2013-9-24,79.5,51.5,34.1,56.8,45.5,34.1,100,83,45,30.11,29.95,8,1,12,0.00
2013-9-25,77.5,56.7,42.1,56.6,49.1,42.1,100,80,37,29.98,29.87,9,1,10,0.00
2013-9-26,79.7,58.5,42.4,56.3,50.1,17.1,100,79,37,30.07,29.93,12,2,14,0.00
2013-9-27,80.4,59.1,41.3,58.8,50.8,41.3,100,78,43,30.18,30.06,11,2,12,0.00
2013-9-28,74.1,59.2,45.8,57.9,52.0,45.8,100,80,51,30.25,30.15,10,2,15,0.00
2013-9-29,80.9,60.4,46.7,62.4,53.6,46.7,100,81,45,30.15,30.00,8,1,12,0.00
2013-9-30,75.9,59.5,48.0,64.1,56.8,48.0,100,92,67,30.06,29.98,6,1,9,0.00
2013-10-1,82.9,63.9,53.8,65.0,59.4,53.8,100,87,52,30.09,30.00,12,2,14,0.00
2013-10-2,85.8,65.8,54.7,67.6,61.1,54.7,100,87,53,30.12,30.03,10,2,15,0.00
2013-10-3,83.8,67.8,56.1,68.9,63.1,56.1,100,87,61,30.11,30.02,10,1,14,0.00
2013-10-4,83.3,70.2,61.9,70.0,66.2,61.9,100,89,61,30.12,30.03,10,2,15,0.04
2013-10-5,84.0,70.9,61.7,72.3,66.3,37.8,100,87,59,30.10,29.99,10,1,15,0.00
2013-10-6,88.9,74.0,62.2,68.5,64.4,60.4,100,75,46,29.99,29.78,12,3,22,0.00
2013-10-7,72.7,58.2,43.1,62.0,51.6,42.8,100,80,54,30.11,29.70,14,4,23,0.43
2013-10-8,68.5,50.6,37.2,50.9,44.4,37.2,100,83,48,30.29,30.11,12,2,17,0.00
2013-10-9,72.1,54.3,37.6,49.8,43.4,37.6,100,72,33,30.31,30.15,10,2,13,0.00
2013-10-10,72.7,56.2,44.6,51.2,47.5,44.0,98,75,43,30.22,30.08,9,2,12,0.00
2013-10-11,60.2,55.7,51.6,57.9,54.2,50.8,100,95,85,30.08,30.03,10,4,14,0.13
2013-10-12,76.3,62.3,52.5,64.0,58.1,52.5,100,87,64,30.16,30.03,12,2,14,0.00
2013-10-13,76.6,63.6,57.4,62.2,58.7,55.9,100,85,60,30.25,30.14,10,2,13,0.03
2013-10-14,68.0,60.5,54.1,60.9,57.8,54.1,100,91,77,30.28,30.21,9,2,10,0.00
2013-10-15,75.2,61.1,47.6,60.5,55.9,47.6,100,85,58,30.21,29.98,7,1,9,0.00
2013-10-16,67.4,59.7,50.7,63.2,57.0,50.4,100,91,70,29.99,29.87,10,1,16,0.04
2013-10-17,62.9,56.7,49.8,61.5,55.6,48.9,100,96,86,29.90,29.66,18,3,26,0.69
2013-10-18,65.1,51.0,39.2,49.2,44.8,39.0,100,81,45,30.03,29.90,14,3,20,0.00
2013-10-19,56.6,44.3,32.5,50.2,42.1,32.5,100,92,75,29.98,29.75,13,2,21,0.11
2013-10-20,60.8,45.0,35.8,43.2,39.2,35.6,100,83,47,30.05,29.93,13,3,21,0.00
2013-10-21,66.7,47.4,31.3,46.2,38.2,31.3,100,76,37,30.06,29.85,12,2,17,0.00
2013-10-22,55.9,47.2,38.1,49.2,39.4,31.0,97,76,44,29.96,29.82,13,3,18,0.12
2013-10-23,43.7,40.0,35.6,41.6,38.9,35.4,100,96,88,29.92,29.73,12,2,12,0.14
2013-10-24,45.8,38.9,32.3,37.2,33.6,-53.0,100,83,53,30.18,29.91,15,3,23,0.01
2013-10-25,44.4,35.6,27.7,38.0,33.0,27.7,100,91,72,30.32,30.13,10,2,14,0.00
2013-10-26,50.9,41.2,28.6,32.6,30.3,27.2,99,68,43,30.24,29.89,16,6,29,0.00
2013-10-27,55.7,41.4,27.7,38.2,32.4,27.5,100,74,43,30.09,29.96,13,2,19,0.00
2013-10-28,62.4,40.2,26.0,41.2,33.6,26.0,100,81,40,30.26,30.08,7,1,10,0.00
2013-10-29,62.9,43.0,28.4,41.8,36.5,28.4,100,82,40,30.36,30.23,9,1,12,0.00
2013-10-30,66.9,51.5,38.1,55.9,48.2,37.9,100,90,66,30.23,30.10,7,1,10,0.00
2013-10-31,69.6,61.7,52.7,61.2,57.2,52.4,100,86,68,30.10,29.51,18,3,24,0.15
2013-11-1,72.3,58.3,43.7,59.4,51.4,43.2,98,79,47,29.70,29.20,26,5,37,0.38
2013-11-2,54.3,48.5,43.5,47.3,44.4,41.6,100,86,67,29.93,29.65,16,3,25,0.03
2013-11-3,53.6,40.5,26.8,43.5,35.1,26.6,100,83,47,30.42,29.93,12,3,15,0.00
2013-11-4,51.6,36.9,22.4,31.5,25.2,22.3,100,68,35,30.51,30.39,8,2,10,0.00
2013-11-5,63.7,45.6,30.5,36.3,32.4,27.9,96,64,33,30.49,30.32,8,1,10,0.00
2013-11-6,75.7,54.4,30.5,52.7,44.2,29.9,100,72,44,30.32,29.91,17,4,21,0.00
2013-11-7,64.7,47.4,38.8,57.5,43.9,27.0,100,89,58,30.13,29.86,16,6,22,0.65
2013-11-8,44.6,36.1,23.5,32.3,29.0,23.5,100,77,52,30.27,30.07,14,3,21,0.00
2013-11-9,57.4,39.2,21.5,33.6,26.7,21.3,100,67,32,30.26,29.95,17,4,24,0.00
2013-11-10,51.6,43.5,27.3,36.5,31.7,26.3,97,64,44,30.25,29.96,27,7,35,0.00
2013-11-11,48.7,37.5,23.0,41.1,30.4,22.8,100,79,48,30.26,30.01,18,4,21,0.06
2013-11-12,41.2,30.7,23.7,40.9,26.7,20.1,100,86,53,30.43,30.03,16,5,19,0.23
2013-11-13,37.8,28.4,16.1,24.4,21.7,15.6,100,77,53,30.48,30.24,15,5,19,0.04
2013-11-14,50.0,34.5,25.0,24.7,22.7,20.7,93,65,33,30.35,30.16,17,6,22,0.00
2013-11-15,55.9,40.5,25.0,42.1,27.9,22.6,97,67,28,30.21,30.10,14,3,22,0.02
2013-11-16,64.0,50.2,30.6,50.1,44.0,30.6,100,81,58,30.21,30.02,11,2,17,0.15
2013-11-17,64.4,58.7,51.4,60.0,53.8,46.5,98,84,72,30.04,29.55,30,6,40,0.59
2013-11-18,56.8,49.4,38.7,52.9,35.7,26.3,93,60,40,30.03,29.65,26,10,36,0.01
2013-11-19,38.7,34.4,23.7,28.2,26.1,22.8,98,72,63,30.37,30.03,18,4,22,0.00
2013-11-20,50.4,34.7,20.7,26.0,18.9,12.7,100,60,23,30.45,30.33,16,4,22,0.00
2013-11-21,59.9,43.2,26.1,43.0,32.5,19.5,92,67,45,30.41,30.21,13,2,17,0.00
2013-11-22,53.4,49.3,37.4,53.2,48.4,33.8,100,97,85,30.21,30.04,16,4,23,0.47
2013-11-23,39.2,31.6,19.8,34.0,24.5,8.3,95,76,53,30.31,30.10,20,7,29,0.00
2013-11-24,25.7,18.4,10.4,14.4,11.0,8.8,96,73,55,30.50,30.31,16,6,26,0.00
2013-11-25,41.0,25.4,9.3,28.8,11.4,6.7,97,61,26,30.48,30.19,17,3,18,0.00
2013-11-26,37.4,33.8,30.4,36.4,33.0,25.7,100,97,74,30.20,29.66,9,2,16,1.44
2013-11-27,34.2,28.6,22.6,34.2,26.6,16.6,100,93,76,30.08,29.66,17,6,25,0.05
2013-11-28,30.7,24.5,14.0,22.3,18.4,12.3,96,78,63,30.38,30.08,15,4,18,0.00
2013-11-29,37.2,27.6,18.5,24.7,21.8,18.0,99,80,54,30.60,30.37,10,2,12,0.00
2013-11-30,41.5,27.9,17.6,26.0,22.1,16.9,99,81,52,30.58,30.19,10,2,13,0.00
2013-12-1,47.8,35.9,21.0,34.9,29.0,21.0,100,79,52,30.19,29.95,13,2,15,0.00
2013-12-2,53.1,40.8,28.2,39.5,35.8,28.2,100,84,59,29.95,29.79,10,1,12,0.00
2013-12-3,58.1,41.9,32.7,43.1,37.7,32.5,100,87,56,29.89,29.82,8,1,13,0.00
2013-12-4,63.0,46.1,30.0,49.8,41.1,30.0,100,84,61,29.99,29.86,10,1,13,0.00
2013-12-5,67.8,57.9,43.9,60.4,54.1,43.2,100,88,70,29.99,29.86,17,5,23,0.55
2013-12-6,43.5,34.7,29.3,43.2,34.2,29.3,100,98,90,30.24,29.97,15,5,16,0.77
2013-12-7,32.9,26.7,19.9,29.3,24.6,17.7,100,92,74,30.54,30.22,11,3,14,0.00
2013-12-8,33.3,25.1,16.5,32.5,22.5,15.0,98,90,78,30.53,30.06,12,4,17,0.00
2013-12-9,39.9,35.8,31.3,39.9,33.9,27.9,100,93,82,30.11,29.95,15,5,22,0.44
2013-12-10,31.3,27.5,22.3,28.2,21.5,14.2,95,78,56,30.23,29.99,19,6,25,0.00
2013-12-11,32.2,24.3,18.9,23.4,16.8,13.6,92,73,53,30.33,30.19,17,6,21,0.00
2013-12-12,22.3,20.0,18.0,15.8,14.1,10.5,87,78,72,30.35,30.31,12,6,17,0.00
2013-12-20,56.5,53.1,18.0,50.4,48.6,10.8,89,85,73,30.35,29.88,11,6,16,0.01
2013-12-21,63.0,58.0,53.2,59.5,55.2,50.4,100,91,77,29.89,29.67,15,5,22,1.00
2013-12-22,71.1,60.4,54.1,59.6,55.4,50.0,98,84,66,29.93,29.58,23,8,38,0.31
2013-12-23,55.4,39.8,30.2,50.3,37.4,22.9,100,91,74,30.24,29.92,13,4,17,0.26
2013-12-24,30.2,23.7,10.9,25.9,16.7,7.7,95,75,56,30.47,30.18,17,6,23,0.00
2013-12-25,31.8,19.8,7.9,23.5,14.7,6.3,97,82,56,30.47,30.18,7,1,9,0.01
2013-12-26,38.1,29.8,19.8,29.2,24.2,18.9,99,81,55,30.31,30.11,20,5,29,0.02
2013-12-27,44.6,29.5,18.0,27.6,23.1,17.8,100,79,47,30.34,30.25,13,3,21,0.00
2013-12-28,51.6,38.7,27.3,31.9,26.7,22.2,91,64,45,30.25,30.04,19,5,23,0.00
2013-12-29,41.9,38.5,32.4,41.9,37.4,29.2,100,96,74,30.04,29.62,15,3,22,0.79
2013-12-30,39.2,28.3,22.5,38.4,24.9,16.4,98,87,76,30.15,29.82,14,5,21,0.01
2013-12-31,27.3,24.8,20.1,24.2,20.2,16.3,93,82,69,30.27,30.04,21,6,30,0.00
2014-1-1,43.7,32.2,26.1,28.3,24.5,20.8,90,74,51,30.28,30.01,14,4,16,0.00
2014-1-2,30.2,25.1,11.3,29.0,24.1,9.9,100,96,88,30.01,29.62,14,3,20,0.04